sat.trackr.live / text

‹ back to catalog

ZHONGXING-9

NORAD 33051 · 2008-028A

PAYLOAD ACTIVE UNKNOWN

§ Identity

Operator
Country
PRC
Launch date
2008-06-09
Launch site
XICLF
Launch vehicle
Mass (kg)
RCS (m²)
19.95

Purposes: comms

External: N2YO · Heavens-Above · Gunter

§ Orbital elements

Epoch: 2026-09-20T01:57:52.079328Z

Period
1,436.06 min
Inclination
1.0041°
Eccentricity
0.0006385
Mean motion
1.00274339 rev/d
Perigee alt
35,759.0 km
Apogee alt
35,812.8 km
Semi-major
42,164.0 km
B*
0.0000e+0
RAAN
83.9241°
Arg perigee
134.2644°
Mean anomaly
262.6493°
Rev number
6,699

§ Raw data

ZHONGXING-91 33051U 08028A   26263.08185277 -.00000253  00000+0  00000+0 0  99962 33051   1.0041  83.9241 0006385 134.2644 262.6493  1.00274339 66994

JSON: /api/v1/satellites/33051 · /tle

For live sub-satellite position, see the globe view (requires WebGL).

§ Visibility from observer

Set your observer location to see the next 7 days of passes ≥ 10°. The values pass through the URL so the page stays shareable.

No JS? Fill the form by hand. The geolocation button needs JavaScript.